| time (UTC) | temp C | wind direction | speed KPH | gust KPH | rain 1hr cm | rain 24hr cm | rain mn cm | humidity % | barometer mb |
| 20260507060504 | 14 | 49 | 19.3 | 30.6 | 0.00 | 0.13 | 0.00 | 98 | 1012.3 |
| 20260507060007 | 14 | 66 | 22.5 | 30.6 | 0.00 | 0.13 | 0.00 | 98 | 1012.4 |
| 20260507055505 | 14 | 26 | 22.5 | 30.6 | 0.00 | 0.13 | 0.00 | 98 | 1012.4 |
| 20260507055005 | 14 | 42 | 19.3 | 30.6 | 0.00 | 0.13 | 0.00 | 98 | 1012.4 |
| 20260507054504 | 14 | 36 | 20.9 | 30.6 | 0.00 | 0.13 | 0.00 | 97 | 1012.5 |
| 20260507054002 | 15 | 38 | 22.5 | 30.6 | 0.00 | 0.13 | 0.00 | 97 | 1012.3 |
| 20260507053501 | 15 | 61 | 20.9 | 30.6 | 0.00 | 0.13 | 0.00 | 97 | 1012.4 |
| 20260507053102 | 15 | 52 | 20.9 | 30.6 | 0.00 | 0.13 | 0.00 | 97 | 1012.4 |
| 20260507052559 | 14 | 44 | 22.5 | 32.2 | 0.00 | 0.13 | 0.00 | 97 | 1012.3 |
| 20260507052058 | 14 | 57 | 22.5 | 30.6 | 0.00 | 0.13 | 0.00 | 97 | 1012.1 |
| 20260507051600 | 14 | 54 | 22.5 | 30.6 | 0.00 | 0.13 | 0.00 | 97 | 1011.9 |
| 20260507051100 | 14 | 46 | 20.9 | 29.0 | 0.00 | 0.13 | 0.00 | 97 | 1011.9 |
| 20260507050559 | 14 | 36 | 20.9 | 29.0 | 0.00 | 0.13 | 0.00 | 97 | 1011.7 |
| 20260507050055 | 14 | 59 | 22.5 | 27.4 | 0.00 | 0.13 | 0.00 | 97 | 1011.7 |
| 20260507045554 | 14 | 35 | 17.7 | 33.8 | 0.00 | 0.13 | 0.13 | 96 | 1012.0 |
| 20260507045053 | 14 | 65 | 19.3 | 33.8 | 0.00 | 0.13 | 0.13 | 96 | 1011.7 |
| 20260507044556 | 14 | 43 | 19.3 | 32.2 | 0.00 | 0.13 | 0.13 | 96 | 1011.1 |
| 20260507044052 | 14 | 65 | 22.5 | 30.6 | 0.00 | 0.13 | 0.13 | 96 | 1011.3 |
| 20260507043551 | 14 | 46 | 20.9 | 29.0 | 0.00 | 0.13 | 0.13 | 96 | 1011.5 |
| 20260507043050 | 14 | 74 | 17.7 | 29.0 | 0.00 | 0.13 | 0.13 | 96 | 1011.7 |
| 20260507042549 | 14 | 51 | 19.3 | 27.4 | 0.00 | 0.13 | 0.13 | 96 | 1011.8 |
| 20260507042048 | 15 | 61 | 19.3 | 25.7 | 0.00 | 0.13 | 0.13 | 96 | 1011.5 |
| 20260507041551 | 15 | 49 | 16.1 | 25.7 | 0.00 | 0.13 | 0.13 | 96 | 1011.9 |
| 20260507041047 | 15 | 45 | 17.7 | 29.0 | 0.00 | 0.13 | 0.13 | 96 | 1011.7 |
| 20260507040547 | 15 | 63 | 17.7 | 29.0 | 0.00 | 0.13 | 0.13 | 96 | 1011.6 |
| 20260507040057 | 15 | 53 | 20.9 | 27.4 | 0.00 | 0.13 | 0.13 | 96 | 1011.7 |
| 20260507035545 | 15 | 44 | 17.7 | 25.7 | 0.00 | 0.13 | 0.13 | 95 | 1011.7 |
| 20260507035044 | 15 | 65 | 17.7 | 25.7 | 0.00 | 0.13 | 0.13 | 95 | 1011.7 |
| 20260507034554 | 15 | 48 | 12.9 | 20.9 | 0.00 | 0.13 | 0.13 | 95 | 1011.8 |
| 20260507034043 | 15 | 53 | 12.9 | 20.9 | 0.00 | 0.13 | 0.13 | 95 | 1011.8 |
| 20260507033543 | 15 | 59 | 12.9 | 27.4 | 0.00 | 0.13 | 0.13 | 95 | 1011.8 |
| 20260507033044 | 15 | 55 | 14.5 | 27.4 | 0.00 | 0.13 | 0.13 | 95 | 1011.5 |
| 20260507032544 | 15 | 43 | 16.1 | 22.5 | 0.00 | 0.13 | 0.13 | 95 | 1011.5 |
| 20260507032040 | 15 | 55 | 16.1 | 24.1 | 0.00 | 0.13 | 0.13 | 95 | 1011.4 |
| 20260507031540 | 15 | 45 | 14.5 | 24.1 | 0.00 | 0.13 | 0.13 | 95 | 1011.2 |
| 20260507031040 | 15 | 53 | 16.1 | 20.9 | 0.00 | 0.13 | 0.13 | 95 | 1011.2 |
| 20260507030538 | 15 | 47 | 14.5 | 27.4 | 0.00 | 0.13 | 0.13 | 94 | 1011.2 |
| 20260507030039 | 15 | 55 | 16.1 | 27.4 | 0.00 | 0.13 | 0.13 | 94 | 1010.9 |
| 20260507025538 | 15 | 63 | 14.5 | 27.4 | 0.00 | 0.13 | 0.13 | 94 | 1010.9 |
| 20260507025037 | 15 | 69 | 17.7 | 30.6 | 0.00 | 0.13 | 0.13 | 94 | 1010.9 |
| 20260507024537 | 15 | 46 | 19.3 | 30.6 | 0.00 | 0.13 | 0.13 | 94 | 1011.0 |
| 20260507024040 | 15 | 42 | 20.9 | 29.0 | 0.00 | 0.13 | 0.13 | 94 | 1010.9 |
| 20260507023534 | 15 | 50 | 19.3 | 27.4 | 0.00 | 0.13 | 0.13 | 94 | 1010.7 |
| 20260507023033 | 15 | 45 | 19.3 | 33.8 | 0.00 | 0.13 | 0.13 | 94 | 1010.6 |
| 20260507022532 | 15 | 36 | 25.7 | 32.2 | 0.00 | 0.13 | 0.13 | 94 | 1010.4 |
| 20260507022032 | 15 | 46 | 22.5 | 30.6 | 0.00 | 0.13 | 0.13 | 94 | 1010.6 |
| 20260507021531 | 15 | 58 | 20.9 | 30.6 | 0.00 | 0.13 | 0.13 | 94 | 1010.5 |
| 20260507021029 | 15 | 67 | 20.9 | 27.4 | 0.00 | 0.13 | 0.13 | 94 | 1010.3 |
| 20260507020530 | 15 | 51 | 20.9 | 27.4 | 0.00 | 0.13 | 0.13 | 94 | 1010.2 |
| 20260507020028 | 15 | 58 | 20.9 | 27.4 | 0.00 | 0.13 | 0.13 | 94 | 1010.1 |
| 20260507015531 | 15 | 43 | 20.9 | 29.0 | 0.00 | 0.13 | 0.13 | 94 | 1010.1 |
| 20260507015027 | 15 | 54 | 20.9 | 29.0 | 0.00 | 0.13 | 0.13 | 94 | 1010.1 |
| 20260507014526 | 15 | 49 | 24.1 | 29.0 | 0.00 | 0.13 | 0.13 | 94 | 1010.0 |
| 20260507014025 | 15 | 49 | 19.3 | 29.0 | 0.00 | 0.13 | 0.13 | 94 | 1010.0 |
| 20260507013524 | 15 | 37 | 19.3 | 27.4 | 0.00 | 0.13 | 0.13 | 93 | 1009.9 |
| 20260507013033 | 15 | 39 | 20.9 | 29.0 | 0.00 | 0.13 | 0.13 | 93 | 1009.7 |
| 20260507012526 | 15 | 38 | 22.5 | 29.0 | 0.00 | 0.13 | 0.13 | 93 | 1009.8 |
| 20260507012022 | 16 | 41 | 24.1 | 29.0 | 0.00 | 0.13 | 0.13 | 93 | 1009.7 |
| 20260507011534 | 16 | 44 | 20.9 | 29.0 | 0.00 | 0.13 | 0.13 | 93 | 1009.6 |
| 20260507011021 | 16 | 36 | 22.5 | 30.6 | 0.00 | 0.13 | 0.13 | 93 | 1009.6 |
| 20260507010520 | 16 | 47 | 19.3 | 30.6 | 0.00 | 0.13 | 0.13 | 93 | 1009.6 |
| 20260507010019 | 16 | 44 | 20.9 | 29.0 | 0.00 | 0.13 | 0.13 | 92 | 1009.3 |
| 20260507005517 | 16 | 48 | 20.9 | 29.0 | 0.00 | 0.13 | 0.13 | 92 | 1009.3 |
| 20260507005017 | 16 | 28 | 20.9 | 29.0 | 0.00 | 0.13 | 0.13 | 92 | 1009.2 |
| 20260507004518 | 16 | 46 | 20.9 | 27.4 | 0.00 | 0.13 | 0.13 | 92 | 1009.1 |
| 20260507004015 | 16 | 40 | 22.5 | 27.4 | 0.00 | 0.13 | 0.13 | 92 | 1009.1 |
| 20260507003514 | 16 | 33 | 16.1 | 25.7 | 0.00 | 0.13 | 0.13 | 92 | 1009.2 |
| 20260507003018 | 16 | 23 | 17.7 | 29.0 | 0.00 | 0.13 | 0.13 | 92 | 1009.2 |
| 20260507002511 | 16 | 38 | 19.3 | 29.0 | 0.00 | 0.13 | 0.13 | 92 | 1009.0 |
| 20260507002011 | 16 | 32 | 19.3 | 24.1 | 0.00 | 0.13 | 0.13 | 91 | 1008.9 |
| 20260507001510 | 16 | 46 | 16.1 | 25.7 | 0.00 | 0.13 | 0.13 | 91 | 1008.8 |
| 20260507001010 | 16 | 38 | 19.3 | 25.7 | 0.00 | 0.13 | 0.13 | 91 | 1008.6 |
| 20260507000511 | 16 | 50 | 17.7 | 22.5 | 0.00 | 0.13 | 0.13 | 91 | 1008.7 |
| 20260507000008 | 17 | 51 | 16.1 | 22.5 | 0.00 | 0.13 | 0.13 | 91 | 1008.8 |
| 20260506235508 | 17 | 46 | 16.1 | 25.7 | 0.00 | 0.13 | 0.13 | 91 | 1008.6 |
| 20260506235007 | 17 | 44 | 19.3 | 25.7 | 0.00 | 0.13 | 0.13 | 90 | 1008.5 |
| 20260506234510 | 17 | 24 | 19.3 | 25.7 | 0.00 | 0.13 | 0.13 | 90 | 1008.6 |
| 20260506234006 | 17 | 42 | 12.9 | 27.4 | 0.00 | 0.13 | 0.13 | 90 | 1008.6 |
| 20260506233503 | 17 | 40 | 20.9 | 30.6 | 0.00 | 0.13 | 0.13 | 89 | 1008.4 |
| 20260506233003 | 17 | 41 | 19.3 | 30.6 | 0.00 | 0.13 | 0.13 | 89 | 1008.5 |
| 20260506232502 | 17 | 16 | 22.5 | 30.6 | 0.00 | 0.13 | 0.13 | 89 | 1008.5 |
| 20260506232000 | 18 | 22 | 19.3 | 27.4 | 0.00 | 0.13 | 0.13 | 89 | 1008.5 |
| 20260506231600 | 18 | 10 | 20.9 | 29.0 | 0.00 | 0.13 | 0.13 | 88 | 1008.5 |
| 20260506231034 | 18 | 51 | 17.7 | 29.0 | 0.00 | 0.13 | 0.13 | 88 | 1008.3 |
| 20260506230533 | 18 | 30 | 19.3 | 27.4 | 0.00 | 0.13 | 0.13 | 88 | 1008.0 |
| 20260506230033 | 18 | 18 | 19.3 | 30.6 | 0.00 | 0.13 | 0.13 | 88 | 1008.0 |
| 20260506225533 | 19 | 19 | 19.3 | 29.0 | 0.00 | 0.13 | 0.13 | 87 | 1008.0 |
| 20260506225033 | 19 | 12 | 17.7 | 27.4 | 0.00 | 0.13 | 0.13 | 87 | 1008.1 |
| 20260506224533 | 20 | 36 | 17.7 | 25.7 | 0.00 | 0.13 | 0.13 | 87 | 1007.9 |
| 20260506224032 | 20 | 72 | 17.7 | 25.7 | 0.00 | 0.13 | 0.13 | 86 | 1007.7 |
| 20260506223531 | 20 | 25 | 19.3 | 25.7 | 0.00 | 0.13 | 0.13 | 85 | 1007.7 |
| 20260506223031 | 20 | 53 | 16.1 | 25.7 | 0.00 | 0.13 | 0.13 | 85 | 1007.9 |
| 20260506222531 | 21 | 54 | 17.7 | 25.7 | 0.00 | 0.13 | 0.13 | 85 | 1007.5 |
| 20260506222032 | 21 | 52 | 16.1 | 24.1 | 0.00 | 0.13 | 0.13 | 85 | 1007.7 |
| 20260506221530 | 21 | 19 | 14.5 | 24.1 | 0.00 | 0.13 | 0.13 | 86 | 1007.5 |
| 20260506221030 | 21 | 18 | 16.1 | 22.5 | 0.00 | 0.13 | 0.13 | 85 | 1007.6 |
| 20260506220530 | 21 | 42 | 16.1 | 22.5 | 0.00 | 0.13 | 0.13 | 85 | 1007.5 |
| 20260506220129 | 21 | 57 | 14.5 | 24.1 | 0.00 | 0.13 | 0.13 | 85 | 1007.5 |
| 20260506215529 | 22 | 36 | 16.1 | 24.1 | 0.00 | 0.13 | 0.13 | 85 | 1007.5 |
| 20260506215029 | 22 | 30 | 12.9 | 22.5 | 0.00 | 0.13 | 0.13 | 85 | 1007.6 |
| 20260506214529 | 22 | 22 | 17.7 | 22.5 | 0.00 | 0.13 | 0.13 | 84 | 1007.7 |
| 20260506214028 | 22 | 19 | 17.7 | 24.1 | 0.00 | 0.13 | 0.13 | 85 | 1007.8 |
| 20260506213530 | 22 | 9 | 16.1 | 24.1 | 0.00 | 0.13 | 0.13 | 85 | 1007.6 |
| 20260506213029 | 22 | 34 | 14.5 | 22.5 | 0.00 | 0.13 | 0.13 | 86 | 1007.6 |
| 20260506212532 | 22 | 34 | 16.1 | 22.5 | 0.00 | 0.13 | 0.13 | 86 | 1007.6 |
| 20260506212029 | 22 | 33 | 12.9 | 24.1 | 0.00 | 0.13 | 0.13 | 86 | 1007.6 |
| 20260506211529 | 22 | 36 | 17.7 | 24.1 | 0.00 | 0.13 | 0.13 | 85 | 1007.5 |
| 20260506211029 | 23 | 34 | 16.1 | 22.5 | 0.00 | 0.13 | 0.13 | 86 | 1007.4 |
| 20260506210531 | 23 | 59 | 14.5 | 20.9 | 0.00 | 0.13 | 0.13 | 87 | 1007.6 |
| 20260506210027 | 23 | 24 | 14.5 | 20.9 | 0.00 | 0.13 | 0.13 | 85 | 1007.6 |
| 20260506205527 | 23 | 18 | 9.7 | 17.7 | 0.00 | 0.13 | 0.13 | 87 | 1007.7 |
| 20260506205028 | 23 | 63 | 9.7 | 17.7 | 0.00 | 0.13 | 0.13 | 87 | 1007.8 |
| 20260506204528 | 23 | 72 | 9.7 | 19.3 | 0.00 | 0.13 | 0.13 | 86 | 1007.9 |
| 20260506204029 | 24 | 59 | 12.9 | 19.3 | 0.00 | 0.13 | 0.13 | 85 | 1007.8 |
| 20260506203526 | 24 | 63 | 11.3 | 19.3 | 0.00 | 0.13 | 0.13 | 86 | 1007.7 |
| 20260506203033 | 24 | 50 | 9.7 | 19.3 | 0.00 | 0.13 | 0.13 | 87 | 1007.8 |
| 20260506202527 | 24 | 90 | 11.3 | 19.3 | 0.00 | 0.13 | 0.13 | 87 | 1007.8 |
| 20260506202025 | 24 | 67 | 11.3 | 19.3 | 0.00 | 0.13 | 0.13 | 86 | 1007.9 |
| 20260506201525 | 24 | 67 | 12.9 | 19.3 | 0.00 | 0.13 | 0.13 | 86 | 1008.1 |
| 20260506201024 | 24 | 71 | 12.9 | 17.7 | 0.00 | 0.13 | 0.13 | 86 | 1008.1 |
| 20260506200524 | 23 | 34 | 9.7 | 16.1 | 0.00 | 0.13 | 0.13 | 87 | 1008.2 |
| 20260506200026 | 23 | 75 | 8.0 | 16.1 | 0.00 | 0.13 | 0.13 | 87 | 1008.2 |
| 20260506195524 | 23 | 66 | 4.8 | 16.1 | 0.00 | 0.13 | 0.13 | 87 | 1008.2 |
| 20260506195024 | 24 | 23 | 8.0 | 14.5 | 0.00 | 0.13 | 0.13 | 86 | 1008.3 |
| 20260506194523 | 24 | 69 | 6.4 | 14.5 | 0.00 | 0.13 | 0.13 | 89 | 1008.2 |
| 20260506194021 | 23 | 80 | 8.0 | 14.5 | 0.00 | 0.13 | 0.13 | 89 | 1008.2 |
| 20260506193520 | 23 | 79 | 4.8 | 14.5 | 0.00 | 0.13 | 0.13 | 91 | 1008.3 |
| 20260506193019 | 23 | 28 | 6.4 | 16.1 | 0.00 | 0.13 | 0.13 | 90 | 1008.5 |
| 20260506192519 | 23 | 69 | 9.7 | 16.1 | 0.00 | 0.13 | 0.13 | 90 | 1008.5 |
| 20260506192017 | 23 | 67 | 8.0 | 16.1 | 0.00 | 0.13 | 0.13 | 92 | 1008.4 |
| 20260506191518 | 22 | 24 | 6.4 | 11.3 | 0.00 | 0.13 | 0.13 | 91 | 1008.6 |
| 20260506191018 | 22 | 30 | 6.4 | 11.3 | 0.00 | 0.13 | 0.13 | 92 | 1008.6 |
| 20260506190515 | 22 | 33 | 6.4 | 9.7 | 0.00 | 0.13 | 0.13 | 92 | 1008.6 |
| 20260506190021 | 22 | 49 | 3.2 | 9.7 | 0.00 | 0.13 | 0.13 | 92 | 1008.7 |
| 20260506185514 | 22 | 76 | 4.8 | 9.7 | 0.00 | 0.13 | 0.13 | 92 | 1008.8 |
| 20260506185014 | 22 | 65 | 6.4 | 9.7 | 0.00 | 0.13 | 0.13 | 92 | 1008.8 |
| 20260506184514 | 22 | 53 | 4.8 | 9.7 | 0.00 | 0.13 | 0.13 | 93 | 1008.8 |
| 20260506184013 | 22 | 70 | 6.4 | 14.5 | 0.00 | 0.13 | 0.13 | 92 | 1008.9 |
| 20260506183512 | 22 | 67 | 9.7 | 19.3 | 0.00 | 0.13 | 0.13 | 92 | 1009.0 |
| 20260506183014 | 22 | 78 | 6.4 | 19.3 | 0.00 | 0.13 | 0.13 | 94 | 1008.9 |
| 20260506182512 | 22 | 68 | 12.9 | 17.7 | 0.00 | 0.13 | 0.13 | 95 | 1008.7 |
| 20260506182019 | 22 | 54 | 11.3 | 17.7 | 0.00 | 0.13 | 0.13 | 97 | 1008.8 |
| 20260506181512 | 21 | 74 | 9.7 | 19.3 | 0.00 | 0.13 | 0.13 | 98 | 1008.8 |
| 20260506181012 | 21 | 28 | 12.9 | 17.7 | 0.00 | 0.13 | 0.13 | 99 | 1008.9 |
| 20260506180512 | 21 | 56 | 11.3 | 17.7 | 0.00 | 0.13 | 0.13 | 99 | 1009.0 |
| 20260506180012 | 21 | 41 | 9.7 | 19.3 | 0.00 | 0.13 | 0.13 | 99 | 1009.0 |
| 20260506175512 | 20 | 63 | 11.3 | 17.7 | 0.00 | 0.13 | 0.13 | 99 | 1009.1 |
| 20260506175011 | 20 | 55 | 11.3 | 14.5 | 0.00 | 0.13 | 0.13 | 99 | 1009.1 |
| 20260506174515 | 20 | 350 | 4.8 | 14.5 | 0.00 | 0.13 | 0.13 | 99 | 1009.3 |
| 20260506174013 | 20 | 5 | 6.4 | 16.1 | 0.00 | 0.13 | 0.13 | 99 | 1009.2 |
| 20260506173511 | 20 | 39 | 12.9 | 16.1 | 0.00 | 0.13 | 0.13 | 99 | 1009.2 |
| 20260506173009 | 20 | 49 | 8.0 | 17.7 | 0.00 | 0.13 | 0.13 | 99 | 1009.1 |
| 20260506172511 | 20 | 49 | 12.9 | 19.3 | 0.00 | 0.13 | 0.13 | 100 | 1009.2 |
| 20260506172009 | 19 | 67 | 14.5 | 19.3 | 0.00 | 0.13 | 0.13 | 99 | 1009.1 |
| 20260506171514 | 19 | 34 | 11.3 | 20.9 | 0.00 | 0.13 | 0.13 | 99 | 1009.1 |
| 20260506171009 | 20 | 55 | 11.3 | 20.9 | 0.00 | 0.13 | 0.13 | 100 | 1009.1 |
| 20260506170511 | 20 | 48 | 14.5 | 20.9 | 0.00 | 0.13 | 0.13 | 100 | 1009.0 |
| 20260506170009 | 19 | 59 | 11.3 | 20.9 | 0.00 | 0.13 | 0.13 | 100 | 1009.0 |
| 20260506165510 | 18 | 47 | 16.1 | 19.3 | 0.00 | 0.13 | 0.13 | 100 | 1009.1 |
| 20260506165008 | 18 | 33 | 14.5 | 19.3 | 0.00 | 0.13 | 0.13 | 100 | 1009.1 |
| 20260506164508 | 18 | 30 | 14.5 | 19.3 | 0.03 | 0.13 | 0.13 | 100 | 1009.1 |
| 20260506164007 | 18 | 9 | 12.9 | 19.3 | 0.08 | 0.13 | 0.13 | 100 | 1009.0 |
| 20260506163505 | 18 | 30 | 11.3 | 19.3 | 0.08 | 0.13 | 0.13 | 100 | 1008.9 |
| 20260506163006 | 18 | 44 | 11.3 | 19.3 | 0.08 | 0.13 | 0.13 | 99 | 1008.8 |
| 20260506162505 | 18 | 20 | 14.5 | 19.3 | 0.08 | 0.13 | 0.13 | 100 | 1008.8 |
| 20260506162007 | 18 | 38 | 11.3 | 20.9 | 0.08 | 0.13 | 0.13 | 100 | 1008.8 |
| 20260506161504 | 18 | 46 | 12.9 | 22.5 | 0.08 | 0.13 | 0.13 | 100 | 1008.7 |
| 20260506161003 | 18 | 42 | 16.1 | 22.5 | 0.08 | 0.13 | 0.13 | 100 | 1008.5 |
| 20260506160506 | 18 | 22 | 12.9 | 24.1 | 0.08 | 0.13 | 0.13 | 99 | 1008.5 |
| 20260506160002 | 18 | 36 | 14.5 | 27.4 | 0.08 | 0.13 | 0.13 | 99 | 1008.4 |
| 20260506155600 | 18 | 32 | 17.7 | 27.4 | 0.08 | 0.13 | 0.13 | 99 | 1008.4 |
| 20260506155059 | 19 | 36 | 17.7 | 29.0 | 0.10 | 0.13 | 0.13 | 99 | 1008.4 |
| 20260506154558 | 20 | 22 | 20.9 | 29.0 | 0.08 | 0.10 | 0.10 | 98 | 1008.3 |
| 20260506154058 | 21 | 9 | 4.8 | 8.0 | 0.03 | 0.05 | 0.05 | 100 | 1008.2 |
| 20260506153557 | 21 | 9 | 4.8 | 6.4 | 0.03 | 0.05 | 0.05 | 100 | 1008.1 |
| 20260506153119 | 21 | 23 | 3.2 | 4.8 | 0.03 | 0.05 | 0.05 | 100 | 1008.0 |
| 20260506152559 | 21 | 9 | 1.6 | 3.2 | 0.03 | 0.05 | 0.05 | 100 | 1008.0 |
| 20260506152056 | 21 | 26 | 0.0 | 3.2 | 0.03 | 0.05 | 0.05 | 100 | 1008.0 |
| 20260506151556 | 21 | 26 | 0.0 | 1.6 | 0.03 | 0.05 | 0.05 | 100 | 1008.1 |
| 20260506151057 | 21 | 234 | 0.0 | 1.6 | 0.03 | 0.05 | 0.05 | 100 | 1008.0 |
| 20260506150555 | 21 | 234 | 0.0 | 0.0 | 0.03 | 0.05 | 0.05 | 100 | 1007.9 |
| 20260506150056 | 21 | 234 | 0.0 | 0.0 | 0.03 | 0.05 | 0.05 | 100 | 1007.8 |
| 20260506145556 | 21 | 234 | 0.0 | 0.0 | 0.03 | 0.05 | 0.05 | 100 | 1007.9 |
| 20260506145056 | 21 | 234 | 0.0 | 0.0 | 0.00 | 0.03 | 0.03 | 100 | 1007.9 |
| 20260506144555 | 21 | 234 | 0.0 | 1.6 | 0.00 | 0.03 | 0.03 | 100 | 1007.9 |
| 20260506144055 | 21 | 234 | 0.0 | 1.6 | 0.00 | 0.03 | 0.03 | 100 | 1007.9 |
| 20260506143555 | 21 | 234 | 0.0 | 0.0 | 0.00 | 0.03 | 0.03 | 100 | 1008.1 |
| 20260506143055 | 21 | 234 | 0.0 | 3.2 | 0.00 | 0.03 | 0.03 | 100 | 1008.1 |
| 20260506142553 | 21 | 234 | 0.0 | 3.2 | 0.03 | 0.03 | 0.03 | 100 | 1008.1 |
| 20260506142053 | 21 | 241 | 0.0 | 1.6 | 0.03 | 0.03 | 0.03 | 100 | 1007.9 |
| 20260506141553 | 21 | 241 | 0.0 | 4.8 | 0.03 | 0.03 | 0.03 | 100 | 1007.9 |
| 20260506141052 | 21 | 241 | 1.6 | 6.4 | 0.03 | 0.03 | 0.03 | 100 | 1007.7 |
| 20260506140554 | 21 | 208 | 1.6 | 6.4 | 0.03 | 0.03 | 0.03 | 100 | 1007.5 |
| 20260506140050 | 21 | 212 | 1.6 | 11.3 | 0.03 | 0.03 | 0.03 | 100 | 1007.4 |
| 20260506135551 | 21 | 242 | 4.8 | 11.3 | 0.03 | 0.03 | 0.03 | 100 | 1007.1 |
| 20260506135048 | 21 | 213 | 4.8 | 14.5 | 0.03 | 0.03 | 0.03 | 100 | 1007.1 |
| 20260506134547 | 21 | 187 | 8.0 | 14.5 | 0.03 | 0.03 | 0.03 | 100 | 1006.9 |
| 20260506134046 | 21 | 207 | 6.4 | 19.3 | 0.03 | 0.03 | 0.03 | 100 | 1006.6 |
| 20260506133546 | 21 | 175 | 11.3 | 19.3 | 0.03 | 0.03 | 0.03 | 100 | 1006.5 |
| 20260506133048 | 21 | 196 | 6.4 | 9.7 | 0.00 | 0.00 | 0.00 | 100 | 1006.4 |
| 20260506132550 | 21 | 173 | 4.8 | 11.3 | 0.00 | 0.00 | 0.00 | 100 | 1006.2 |
| 20260506132045 | 21 | 211 | 6.4 | 11.3 | 0.00 | 0.00 | 0.00 | 100 | 1006.2 |
| 20260506131545 | 21 | 196 | 6.4 | 14.5 | 0.00 | 0.00 | 0.00 | 100 | 1006.1 |
| 20260506131045 | 21 | 201 | 8.0 | 14.5 | 0.00 | 0.00 | 0.00 | 100 | 1006.1 |
| 20260506130546 | 21 | 210 | 3.2 | 11.3 | 0.00 | 0.00 | 0.00 | 100 | 1006.1 |
| 20260506130018 | 21 | 200 | 6.4 | 14.5 | 0.00 | 0.00 | 0.00 | 100 | 1006.2 |
| 20260506125517 | 21 | 219 | 6.4 | 11.3 | 0.00 | 0.00 | 0.00 | 100 | 1006.1 |
| 20260506125017 | 21 | 213 | 3.2 | 9.7 | 0.00 | 0.00 | 0.00 | 100 | 1006.1 |
| 20260506124517 | 21 | 215 | 6.4 | 9.7 | 0.00 | 0.00 | 0.00 | 100 | 1006.0 |
| 20260506124019 | 21 | 219 | 4.8 | 14.5 | 0.00 | 0.00 | 0.00 | 100 | 1005.9 |
| 20260506123520 | 21 | 188 | 8.0 | 17.7 | 0.00 | 0.00 | 0.00 | 100 | 1005.8 |
| 20260506123017 | 21 | 188 | 8.0 | 19.3 | 0.00 | 0.00 | 0.00 | 100 | 1005.8 |
| 20260506122517 | 21 | 215 | 11.3 | 25.7 | 0.00 | 0.00 | 0.00 | 100 | 1005.9 |
| 20260506122015 | 21 | 184 | 14.5 | 25.7 | 0.00 | 0.00 | 0.00 | 100 | 1005.8 |
| 20260506121515 | 21 | 216 | 11.3 | 20.9 | 0.00 | 0.00 | 0.00 | 100 | 1005.7 |
| 20260506121014 | 21 | 184 | 9.7 | 20.9 | 0.00 | 0.00 | 0.00 | 100 | 1005.6 |
| 20260506120513 | 21 | 207 | 9.7 | 20.9 | 0.00 | 0.00 | 0.00 | 100 | 1005.8 |
| 20260506120013 | 21 | 170 | 11.3 | 19.3 | 0.00 | 0.00 | 0.00 | 100 | 1005.6 |
| 20260506115512 | 21 | 167 | 11.3 | 17.7 | 0.00 | 0.00 | 0.00 | 100 | 1005.6 |
| 20260506115011 | 21 | 171 | 9.7 | 14.5 | 0.00 | 0.00 | 0.00 | 100 | 1005.7 |
| 20260506114510 | 21 | 121 | 8.0 | 17.7 | 0.00 | 0.00 | 0.00 | 100 | 1005.7 |
| 20260506114010 | 21 | 181 | 6.4 | 17.7 | 0.00 | 0.00 | 0.00 | 100 | 1005.7 |
| 20260506113510 | 21 | 172 | 8.0 | 16.1 | 0.00 | 0.00 | 0.00 | 100 | 1005.8 |
| 20260506113010 | 21 | 150 | 8.0 | 16.1 | 0.00 | 0.00 | 0.00 | 100 | 1005.8 |
| 20260506112512 | 21 | 174 | 11.3 | 19.3 | 0.00 | 0.00 | 0.00 | 100 | 1005.8 |
| 20260506112009 | 21 | 165 | 12.9 | 19.3 | 0.00 | 0.00 | 0.00 | 100 | 1005.9 |
| 20260506111520 | 21 | 155 | 8.0 | 19.3 | 0.00 | 0.00 | 0.00 | 100 | 1006.0 |
| 20260506111008 | 21 | 173 | 9.7 | 19.3 | 0.00 | 0.00 | 0.00 | 100 | 1006.0 |
| 20260506110508 | 21 | 161 | 9.7 | 17.7 | 0.00 | 0.00 | 0.00 | 100 | 1006.0 |
| 20260506110010 | 21 | 175 | 11.3 | 17.7 | 0.00 | 0.00 | 0.00 | 100 | 1005.9 |
| 20260506105507 | 21 | 144 | 9.7 | 14.5 | 0.00 | 0.00 | 0.00 | 100 | 1005.9 |
| 20260506105107 | 21 | 163 | 4.8 | 12.9 | 0.00 | 0.00 | 0.00 | 100 | 1005.9 |
| 20260506104506 | 21 | 183 | 4.8 | 12.9 | 0.00 | 0.00 | 0.00 | 100 | 1006.0 |
| 20260506104008 | 21 | 172 | 8.0 | 14.5 | 0.00 | 0.00 | 0.00 | 100 | 1005.9 |
| 20260506103507 | 21 | 155 | 4.8 | 14.5 | 0.00 | 0.00 | 0.00 | 100 | 1005.8 |
| 20260506103006 | 21 | 142 | 4.8 | 12.9 | 0.00 | 0.00 | 0.00 | 99 | 1005.9 |
| 20260506102507 | 21 | 190 | 6.4 | 16.1 | 0.00 | 0.00 | 0.00 | 99 | 1005.9 |
| 20260506102008 | 21 | 191 | 9.7 | 19.3 | 0.00 | 0.00 | 0.00 | 99 | 1005.8 |
| 20260506101505 | 21 | 185 | 12.9 | 22.5 | 0.00 | 0.00 | 0.00 | 99 | 1005.7 |
| 20260506101004 | 21 | 173 | 12.9 | 22.5 | 0.00 | 0.00 | 0.00 | 99 | 1005.6 |
| 20260506100504 | 21 | 178 | 11.3 | 25.7 | 0.00 | 0.00 | 0.00 | 99 | 1005.8 |
| 20260506100004 | 21 | 194 | 11.3 | 19.3 | 0.00 | 0.00 | 0.00 | 99 | 1005.8 |
| 20260506095503 | 21 | 178 | 9.7 | 24.1 | 0.00 | 0.00 | 0.00 | 99 | 1005.7 |
| 20260506095004 | 21 | 197 | 12.9 | 24.1 | 0.00 | 0.00 | 0.00 | 99 | 1005.7 |
| 20260506094504 | 21 | 169 | 11.3 | 19.3 | 0.00 | 0.00 | 0.00 | 99 | 1005.7 |
| 20260506094003 | 21 | 182 | 11.3 | 19.3 | 0.00 | 0.00 | 0.00 | 99 | 1005.8 |
| 20260506093502 | 21 | 145 | 11.3 | 19.3 | 0.00 | 0.00 | 0.00 | 99 | 1005.8 |
| 20260506093002 | 21 | 189 | 11.3 | 22.5 | 0.00 | 0.00 | 0.00 | 99 | 1005.9 |
| 20260506092501 | 21 | 180 | 12.9 | 27.4 | 0.00 | 0.00 | 0.00 | 99 | 1005.9 |
| 20260506092002 | 21 | 167 | 16.1 | 27.4 | 0.00 | 0.00 | 0.00 | 99 | 1005.7 |
| 20260506091503 | 21 | 174 | 8.0 | 20.9 | 0.00 | 0.00 | 0.00 | 99 | 1005.8 |
| 20260506091005 | 21 | 182 | 9.7 | 27.4 | 0.00 | 0.00 | 0.00 | 99 | 1005.8 |
| 20260506090600 | 21 | 218 | 14.5 | 27.4 | 0.00 | 0.00 | 0.00 | 99 | 1005.8 |
| 20260506090111 | 21 | 167 | 14.5 | 24.1 | 0.00 | 0.00 | 0.00 | 99 | 1005.8 |
| 20260506085559 | 21 | 180 | 14.5 | 24.1 | 0.00 | 0.00 | 0.00 | 99 | 1005.8 |
| 20260506085059 | 21 | 172 | 14.5 | 25.7 | 0.00 | 0.00 | 0.00 | 99 | 1005.7 |
| 20260506084632 | 21 | 167 | 14.5 | 27.4 | 0.00 | 0.00 | 0.00 | 99 | 1005.7 |
| 20260506084100 | 21 | 192 | 12.9 | 27.4 | 0.00 | 0.00 | 0.00 | 99 | 1005.6 |
| 20260506083558 | 21 | 202 | 12.9 | 20.9 | 0.00 | 0.00 | 0.00 | 99 | 1005.5 |
| 20260506083059 | 21 | 167 | 9.7 | 22.5 | 0.00 | 0.00 | 0.00 | 99 | 1005.5 |
| 20260506082557 | 21 | 211 | 8.0 | 27.4 | 0.00 | 0.00 | 0.00 | 98 | 1005.5 |
| 20260506082056 | 21 | 178 | 9.7 | 25.7 | 0.00 | 0.00 | 0.00 | 98 | 1005.5 |
| 20260506081611 | 21 | 153 | 16.1 | 27.4 | 0.00 | 0.00 | 0.00 | 98 | 1005.5 |
| 20260506081055 | 21 | 184 | 14.5 | 27.4 | 0.00 | 0.00 | 0.00 | 98 | 1005.5 |
| 20260506080554 | 21 | 186 | 14.5 | 25.7 | 0.00 | 0.00 | 0.00 | 98 | 1005.6 |
| 20260506073047 | 22 | 172 | 11.3 | 19.3 | 0.00 | 0.00 | 0.00 | 97 | 1005.8 |
| 20260506072548 | 22 | 144 | 11.3 | 19.3 | 0.00 | 0.00 | 0.00 | 97 | 1005.9 |
| 20260506072046 | 22 | 132 | 8.0 | 19.3 | 0.00 | 0.00 | 0.00 | 97 | 1005.9 |
| 20260506071544 | 22 | 144 | 12.9 | 19.3 | 0.00 | 0.00 | 0.00 | 96 | 1006.0 |
| 20260506071044 | 22 | 153 | 9.7 | 20.9 | 0.00 | 0.00 | 0.00 | 96 | 1006.1 |
| 20260506070542 | 22 | 180 | 14.5 | 20.9 | 0.00 | 0.00 | 0.00 | 96 | 1006.2 |
| 20260506062037 | 22 | 166 | 8.0 | 12.9 | 0.00 | 0.00 | 0.00 | 96 | 1006.3 |
| 20260506061537 | 22 | 160 | 6.4 | 14.5 | 0.00 | 0.00 | 0.00 | 96 | 1006.4 |
| 20260506061037 | 22 | 151 | 6.4 | 16.1 | 0.00 | 0.00 | 0.00 | 96 | 1006.3 |